[[{"header":{"parameterUnit":"m.s-1","parameterCategory":2,"la1":30.2991,"la2":30.254,"lo1":-89.0895,"lo2":-89.0444,"dy":0.0017,"dx":0.0017,"nx":28,"ny":28,"refTime":"2024-07-04T21:00:00:Z","depth":"0","parameterNumber":2,"parameterNumberName":"U-component_of_CURRENTS"},"data":[0,0,0,0,0,0,0,0,0,0,0,0,0,0,0,0,0,0,0,0,0,0,0,0,0,0,0,0,0,0,0,0,0,0,0,0,0,0,0,0,0,0,0,0,0,0,0,0,0,0,0,0,0,0,0,0,0,0,0.3951,0.3952,0,0.4074,0.4076,0.4077,0.41,0.4098,0.4097,0.4096,0.411,0.4111,0.4113,0,0,0,0,0,0,0,0,0,0,0,0,0,0.3831,0.3833,0.3951,0.3952,0.3954,0.4074,0.4076,0.4078,0.41,0.4098,0.4097,0.4095,0.411,0.4111,0.4113,0,0,0,0,0,0,0,0,0,0,0,0,0,0.3913,0.3833,0.3951,0.3977,0.3981,0.4074,0.4076,0.4078,0.41,0.4098,0.4096,0.4095,0.4109,0.4111,0.4113,0.4164,0,0,0.412,0.4121,0,0,0,0,0,0,0,0,0.3909,0.3918,0.3972,0.3976,0.398,0.4068,0.4039,0.4101,0.4101,0.4057,0.4096,0.4094,0.4086,0.409,0.4122,0.4164,0.4165,0.412,0.4122,0.4123,0.4123,0,0,0,0,0,0,0,0.3903,0.3913,0.4002,0.3974,0.3978,0.4016,0.4025,0.4052,0.408,0.4061,0.4062,0.4073,0.4087,0.412,0.4122,0.4165,0.412,0.4122,0.4124,0.4125,0.4362,0.4367,0,0,0,0,0,0,0.3881,0.3908,0.3998,0.4005,0.3937,0.4019,0.403,0.4043,0.4082,0.4086,0.4074,0.4074,0.4117,0.4119,0.4122,0.4258,0.4123,0.4125,0.4126,0.4358,0.4364,0.4369,0,0,0,0,0,0,0.3878,0.3888,0.3993,0.3957,0.3973,0.4022,0.4038,0.4046,0.4083,0.4093,0.4095,0.4102,0.4115,0.4119,0.4178,0.4255,0.4126,0.4128,0.4352,0.4359,0.4366,0.4482,0,0,0,0,0,0,0.3874,0.3886,0.3899,0.3956,0.3974,0.4069,0.404,0.405,0.4091,0.4091,0.4118,0.4117,0.4114,0.4175,0.418,0.4256,0.413,0.4345,0.4355,0.4364,0.4472,0.4493,0.451,0,0,0,0,0,0.3869,0.3901,0.3898,0.391,0.3986,0.4072,0.4087,0.4116,0.4094,0.4137,0.4155,0.4116,0.4238,0.418,0.4185,0.4264,0.4341,0.4352,0.4363,0.4463,0.4489,0.451,0,0,0,0,0,0,0.387,0.3907,0.3906,0.395,0.4011,0.4075,0.4114,0.4126,0.4177,0.4174,0.4164,0.4168,0.4269,0.4251,0.4187,0.4368,0.4291,0.4303,0.4365,0.4389,0.4408,0.4419,0.4132,0,0,0,0,0,0.3871,0.3894,0.3948,0.3987,0.4015,0.4063,0.41,0.4128,0.4175,0.4196,0.4219,0.4257,0.4324,0.4336,0.4399,0.4466,0.4477,0.453,0.4549,0.4565,0.4585,0.469,0.4719,0.4406,0.4405,0.4405,0,0,0.3877,0.3905,0.3916,0.3988,0.403,0.4122,0.4083,0.4157,0.4245,0.4188,0.4307,0.4333,0.4366,0.4474,0.4515,0.4456,0.4661,0.4579,0.4592,0.4603,0.4705,0.4735,0.4761,0.4413,0.4412,0.441,0,0,0.3929,0.3933,0.3981,0.4039,0.4114,0.4166,0.4188,0.4271,0.4315,0.4423,0.4428,0.4496,0.4574,0.4629,0.4659,0.4819,0.4778,0.4834,0.491,0.5013,0.5038,0.5061,0.51,0.5125,0.4817,0.4818,0.4818,0,0.3946,0.4005,0.4016,0.4097,0.4153,0.419,0.4284,0.4361,0.446,0.4495,0.448,0.4643,0.4667,0.4795,0.4859,0.4863,0.4883,0.4808,0.5035,0.5057,0.5079,0.5113,0.5139,0.4825,0.4824,0.4823,0.4822,0,0.4046,0.4098,0.4139,0.4247,0.432,0.4404,0.4501,0.459,0.4635,0.4681,0.4815,0.4867,0.4943,0.4982,0.4966,0.5133,0.5086,0.5062,0.4963,0.5117,0.5143,0.5169,0.4835,0.4832,0.483,0.4828,0,0,0.4071,0.4184,0.4198,0.4255,0.4398,0.4467,0.463,0.4759,0.4852,0.4937,0.505,0.5171,0.5151,0.5189,0.519,0.527,0.5436,0.5223,0.5225,0.5238,0.5621,0.537,0.5372,0.5441,0.5446,0.5451,0.5572,0,0.415,0.4293,0.4341,0.4496,0.458,0.4663,0.481,0.4927,0.5021,0.5148,0.5188,0.5304,0.5243,0.5291,0.5365,0.5447,0.5511,0.5403,0.5492,0.5494,0.5233,0.5397,0.5124,0.5189,0.5596,0.56,0.5603,0,0.4252,0.4319,0.4468,0.4603,0.4647,0.4751,0.4951,0.5091,0.5258,0.5328,0.5414,0.544,0.5576,0.5512,0.5684,0.5612,0.563,0.5665,0.567,0.5412,0.529,0.511,0.5219,0.5175,0.5641,0.5638,0.5635,0,0.4279,0.4416,0.4522,0.4574,0.4747,0.4822,0.4933,0.512,0.5243,0.544,0.553,0.565,0.5721,0.5814,0.5833,0.5792,0.5999,0.595,0.5731,0.5711,0.5485,0.5434,0.554,0.6079,0.6079,0.6079,0.6078,0,0.4368,0.4443,0.4522,0.4589,0.4719,0.4829,0.5013,0.5154,0.5344,0.5459,0.5595,0.5694,0.5805,0.5889,0.5918,0.5883,0.6061,0.578,0.5748,0.5512,0.5465,0.5414,0.54,0.6083,0.6082,0.6081,0.6081,0,0.4415,0.4471,0.4589,0.4713,0.4749,0.485,0.5044,0.5154,0.5361,0.5531,0.5592,0.5762,0.5839,0.5903,0.6037,0.5945,0.5822,0.5917,0.5586,0.551,0.5188,0.5188,0.5018,0.4894,0.5712,0.5707,0.5702,0,0.4439,0.4509,0.4656,0.4688,0.4734,0.4872,0.4956,0.5161,0.5267,0.5532,0.5581,0.5705,0.5689,0.5781,0.5694,0.5673,0.5619,0.5408,0.5274,0.5158,0.5142,0.4974,0.4873,0.5039,0.503,0.5022,0.5016,0,0.4471,0.4541,0.4642,0.4705,0.4761,0.4849,0.4961,0.5034,0.5241,0.5338,0.539,0.5394,0.5417,0.5226,0.52,0.5173,0.5153,0.5237,0.5259,0.4736,0.4429,0.4294,0.495,0.4947,0.4954,0.4959,0.4963,0.4965,0.4474,0.4554,0.4654,0.4688,0.4731,0.4717,0.4698,0.4777,0.4839,0.4839,0.5032,0.4914,0.4901,0.4769,0.4725,0.4543,0.4578,0.4429,0.4477,0.4348,0.4098,0.4541,0.4397,0.44,0.4403,0.4406,0.4409,0,0.4422,0.4511,0.4579,0.4586,0.4497,0.4569,0.459,0.4475,0.4349,0.4435,0.4374,0.4293,0.4129,0.416,0.4049,0.3891,0.3733,0.3829,0.3637,0.3608,0.415,0.3992,0.3579,0.3579,0.3579,0.3579,0.358,0.358,0.4413,0.4451,0.4474,0.4283,0.4239,0.404,0.3963,0.3824,0.3813,0.3611,0.3534,0.3579,0.3822,0.3824,0.3691,0.3585,0.3448,0.3152,0.3287,0.3798,0.3861,0.3922,0.3776,0.3324,0.3324,0.2554,0.2549,0.2545]},{"header":{"parameterUnit":"m.s-1","parameterCategory":2,"la1":30.2991,"la2":30.254,"lo1":-89.0895,"lo2":-89.0444,"dy":0.0017,"dx":0.0017,"nx":28,"ny":28,"refTime":"2024-07-04T21:00:00:Z","depth":"0","parameterNumber":3,"parameterNumberName":"V-component_of_CURRENTS"},"data":[0,0,0,0,0,0,0,0,0,0,0,0,0,0,0,0,0,0,0,0,0,0,0,0,0,0,0,0,0,0,0,0,0,0,0,0,0,0,0,0,0,0,0,0,0,0,0,0,0,0,0,0,0,0,0,0,0,0,0.0193,0.0193,0,0.0194,0.0194,0.0194,0.0179,0.0178,0.0178,0.0177,0.0171,0.0171,0.0171,0,0,0,0,0,0,0,0,0,0,0,0,0,0.0155,0.0156,0.0193,0.0193,0.0193,0.0194,0.0194,0.0194,0.0179,0.0178,0.0178,0.0177,0.0171,0.0171,0.0171,0,0,0,0,0,0,0,0,0,0,0,0,0,0.0165,0.0156,0.0193,0.0185,0.0184,0.0194,0.0194,0.0194,0.0179,0.0178,0.0178,0.0177,0.0171,0.0171,0.0171,0.0187,0,0,0.0172,0.0173,0,0,0,0,0,0,0,0,0.0165,0.0167,0.0186,0.0186,0.0185,0.0185,0.0178,0.0191,0.0179,0.0181,0.0177,0.0177,0.0175,0.0175,0.0177,0.0187,0.0186,0.0172,0.0173,0.0173,0.0173,0,0,0,0,0,0,0,0.0164,0.0167,0.0193,0.0186,0.0185,0.0174,0.0175,0.0181,0.0182,0.0181,0.018,0.018,0.0175,0.0177,0.0177,0.0186,0.0172,0.0173,0.0173,0.0173,0.0251,0.0252,0,0,0,0,0,0,0.0166,0.0166,0.0193,0.0193,0.0173,0.0175,0.0176,0.0186,0.0182,0.0181,0.018,0.0179,0.0177,0.0177,0.0177,0.0255,0.0173,0.0173,0.0173,0.0249,0.0251,0.0253,0,0,0,0,0,0,0.0165,0.0169,0.0193,0.0179,0.0181,0.0177,0.0188,0.0186,0.0195,0.0182,0.018,0.0191,0.0176,0.0176,0.0202,0.0252,0.0173,0.0174,0.0247,0.025,0.0252,0.0372,0,0,0,0,0,0,0.0164,0.0169,0.0179,0.018,0.0182,0.022,0.0188,0.0187,0.0196,0.0194,0.0191,0.0189,0.0176,0.0202,0.0203,0.0251,0.0174,0.0244,0.0248,0.0251,0.0366,0.0378,0.0389,0,0,0,0,0,0.0163,0.0185,0.018,0.0183,0.0196,0.0222,0.0223,0.0216,0.0197,0.0218,0.0214,0.0189,0.0224,0.0204,0.0204,0.0254,0.0243,0.0247,0.0251,0.036,0.0376,0.0389,0,0,0,0,0,0,0.0173,0.0185,0.018,0.0204,0.0219,0.0219,0.0234,0.0225,0.0237,0.0238,0.0213,0.0213,0.0256,0.0235,0.0213,0.0285,0.023,0.0234,0.0313,0.0327,0.0339,0.0379,0.0174,0,0,0,0,0,0.0181,0.0201,0.021,0.0231,0.024,0.0237,0.0245,0.0248,0.0255,0.0259,0.0256,0.0256,0.0273,0.0283,0.0291,0.0329,0.0295,0.036,0.0372,0.0382,0.0415,0.0409,0.0424,0.0267,0.0267,0.0267,0,0,0.0188,0.0199,0.0209,0.0235,0.0242,0.0292,0.0241,0.027,0.032,0.0257,0.0318,0.0299,0.0291,0.0341,0.0358,0.033,0.0401,0.0388,0.0397,0.0424,0.0415,0.043,0.0444,0.027,0.0269,0.0269,0,0,0.0233,0.0227,0.0269,0.0295,0.0322,0.033,0.0343,0.0359,0.0372,0.0421,0.0393,0.0408,0.0426,0.0439,0.0445,0.0527,0.0464,0.052,0.0618,0.0612,0.0625,0.0636,0.0577,0.0583,0.0527,0.0527,0.0527,0,0.0243,0.0303,0.0285,0.0344,0.0382,0.0356,0.043,0.0445,0.0471,0.0501,0.046,0.0507,0.0484,0.056,0.0583,0.0559,0.0521,0.0564,0.0628,0.0639,0.0648,0.0586,0.059,0.0533,0.0532,0.0532,0.0531,0,0.0331,0.0385,0.0414,0.0485,0.0521,0.0577,0.0602,0.0638,0.0638,0.0655,0.0717,0.0685,0.0716,0.0703,0.0667,0.0736,0.0673,0.0642,0.0594,0.0672,0.06,0.0602,0.0542,0.054,0.0538,0.0536,0,0,0.0356,0.0456,0.0472,0.0542,0.0607,0.0654,0.0734,0.0811,0.0888,0.088,0.0972,0.0966,0.0933,0.0938,0.089,0.0876,0.088,0.0793,0.079,0.0738,0.0828,0.0765,0.076,0.0856,0.0858,0.086,0.0737,0,0.0441,0.0577,0.0607,0.0755,0.0836,0.0855,0.0944,0.1006,0.1039,0.1117,0.1081,0.1143,0.1029,0.1049,0.102,0.094,0.0898,0.0914,0.0759,0.0754,0.0693,0.0766,0.0758,0.0649,0.0739,0.0739,0.074,0,0.0542,0.0622,0.077,0.092,0.0957,0.1037,0.118,0.1261,0.1343,0.1372,0.1403,0.1369,0.1371,0.1252,0.114,0.1154,0.1004,0.0908,0.0901,0.0813,0.0699,0.0593,0.0649,0.051,0.0742,0.0742,0.0742,0,0.0602,0.0753,0.0875,0.0926,0.1073,0.1148,0.123,0.1337,0.145,0.1539,0.162,0.1587,0.1596,0.144,0.123,0.1189,0.1082,0.0996,0.0786,0.0776,0.0729,0.0714,0.0645,0.0901,0.0901,0.0902,0.0902,0,0.0708,0.0817,0.0912,0.0991,0.1164,0.1229,0.1423,0.1501,0.1644,0.1807,0.1754,0.1851,0.1646,0.1552,0.1317,0.1078,0.1142,0.0828,0.0766,0.0764,0.0754,0.0597,0.0498,0.0897,0.0898,0.0899,0.09,0,0.0795,0.0845,0.1004,0.1147,0.1206,0.1333,0.1557,0.17,0.1809,0.202,0.206,0.2065,0.1931,0.169,0.1439,0.1206,0.0863,0.0854,0.0842,0.0782,0.0439,0.0347,0.0169,0.0089,0.0604,0.0602,0.0601,0,0.0854,0.0939,0.1113,0.1212,0.129,0.1475,0.162,0.1775,0.1938,0.2153,0.2261,0.2205,0.2173,0.1782,0.137,0.0963,0.0788,0.0689,0.0612,0.0452,0.0303,0.0224,0.0165,0.0566,0.0564,0.0563,0.0562,0,0.0978,0.1027,0.1155,0.135,0.1503,0.1696,0.1903,0.2049,0.2247,0.2403,0.2556,0.2543,0.2179,0.1787,0.1255,0.096,0.0586,0.0643,0.0506,0.0309,0.0192,0.0076,0.0573,0.0549,0.055,0.0551,0.0552,0.0552,0.1062,0.1173,0.1323,0.1514,0.1685,0.189,0.2044,0.2248,0.2483,0.269,0.2694,0.2679,0.2193,0.1452,0.1077,0.0446,0.0418,0.024,0.0146,0.0085,0.0015,0.0464,0.0358,0.0359,0.0359,0.0359,0.0359,0,0.1165,0.1295,0.1482,0.1695,0.1867,0.1944,0.2221,0.236,0.2588,0.2741,0.2815,0.2569,0.1943,0.1352,0.0506,0.0061,-0.0094,-0.0155,-0.0243,-0.0278,0.0154,0.0164,-0.002,-0.002,-0.002,-0.002,-0.002,-0.002,0.1234,0.1414,0.1512,0.1794,0.1937,0.2147,0.2282,0.2483,0.2637,0.2772,0.2764,0.273,0.238,0.0893,-0.0062,-0.03,-0.0546,-0.0654,-0.0762,-0.044,-0.0409,-0.0379,-0.0388,-0.0685,-0.0686,-0.1135,-0.114,-0.1143]}],[{"header":{"parameterUnit":"m.s-1","parameterCategory":2,"la1":30.2991,"la2":30.254,"lo1":-89.0895,"lo2":-89.0444,"dy":0.0017,"dx":0.0017,"nx":28,"ny":28,"refTime":"2024-07-04T21:00:00:Z","depth":"2","parameterNumber":2,"parameterNumberName":"U-component_of_CURRENTS"},"data":[0,0,0,0,0,0,0,0,0,0,0,0,0,0,0,0,0,0,0,0,0,0,0,0,0,0,0,0,0,0,0,0,0,0,0,0,0,0,0,0,0,0,0,0,0,0,0,0,0,0,0,0,0,0,0,0,0,0,0.3533,0.3534,0,0.362,0.3621,0.3622,0.365,0.3649,0.3649,0.3649,0.3653,0.3654,0.3654,0,0,0,0,0,0,0,0,0,0,0,0,0,0.3453,0.3454,0.3533,0.3534,0.3535,0.362,0.3621,0.3622,0.365,0.3649,0.3649,0.3649,0.3653,0.3654,0.3654,0,0,0,0,0,0,0,0,0,0,0,0,0,0.3507,0.3454,0.3532,0.3561,0.3564,0.362,0.3621,0.3622,0.365,0.3649,0.3649,0.3649,0.3653,0.3654,0.3654,0.3664,0,0,0.3656,0.3656,0,0,0,0,0,0,0,0,0.3503,0.3509,0.3555,0.3559,0.3563,0.3626,0.3595,0.3633,0.365,0.3615,0.3649,0.3649,0.3638,0.364,0.3655,0.3664,0.3664,0.3656,0.3656,0.3656,0.3656,0,0,0,0,0,0,0,0.35,0.3506,0.3565,0.3557,0.3561,0.3591,0.3598,0.3603,0.3624,0.3618,0.3621,0.3634,0.3639,0.3655,0.3655,0.3664,0.3656,0.3656,0.3656,0.3657,0.3843,0.3848,0,0,0,0,0,0,0.349,0.3502,0.3562,0.3568,0.3534,0.3593,0.36,0.3604,0.3626,0.363,0.3634,0.3635,0.3654,0.3655,0.3655,0.3784,0.3656,0.3657,0.3657,0.3838,0.3844,0.3849,0,0,0,0,0,0,0.3488,0.3494,0.3559,0.3539,0.355,0.3594,0.3599,0.3606,0.3637,0.364,0.3642,0.3659,0.3654,0.3655,0.3696,0.3779,0.3657,0.3657,0.3833,0.384,0.3847,0.3965,0,0,0,0,0,0,0.3485,0.3493,0.3502,0.3538,0.3551,0.3606,0.36,0.3608,0.3645,0.3647,0.3661,0.3661,0.3654,0.3695,0.3696,0.3778,0.3658,0.3827,0.3836,0.3844,0.3956,0.3976,0.3993,0,0,0,0,0,0.3482,0.3502,0.3501,0.351,0.3558,0.3607,0.3617,0.3646,0.3647,0.367,0.3692,0.3661,0.3753,0.3698,0.3698,0.3782,0.3823,0.3834,0.3844,0.3947,0.3972,0.3992,0,0,0,0,0,0,0.3477,0.3508,0.3508,0.3536,0.3572,0.3613,0.3648,0.3657,0.3693,0.3709,0.3693,0.3695,0.3794,0.3763,0.3702,0.387,0.3795,0.3806,0.3874,0.3896,0.3915,0.3948,0.3658,0,0,0,0,0,0.3477,0.3502,0.353,0.3559,0.3578,0.3612,0.3639,0.3666,0.37,0.3717,0.3727,0.3765,0.3837,0.3839,0.3898,0.3939,0.3944,0.4007,0.4025,0.4041,0.4074,0.4148,0.4176,0.3884,0.3884,0.3883,0,0,0.3484,0.3508,0.3521,0.3561,0.3594,0.3641,0.3628,0.3692,0.3753,0.371,0.3796,0.3841,0.3875,0.397,0.4007,0.3941,0.4129,0.4054,0.4067,0.4092,0.4162,0.419,0.4215,0.3891,0.3889,0.3888,0,0,0.3526,0.3533,0.3571,0.3609,0.367,0.3688,0.3706,0.3761,0.3809,0.3898,0.3916,0.4001,0.4062,0.4114,0.4147,0.4294,0.4255,0.4314,0.4391,0.4462,0.4486,0.4507,0.4545,0.4568,0.4284,0.4285,0.4285,0,0.3538,0.3581,0.3593,0.3651,0.3695,0.3707,0.3771,0.3823,0.3892,0.3952,0.3953,0.4131,0.4155,0.4276,0.435,0.4339,0.4352,0.4292,0.4484,0.4505,0.4524,0.4557,0.4582,0.4292,0.4291,0.429,0.4289,0,0.3605,0.3653,0.3688,0.3751,0.3797,0.3861,0.3923,0.3968,0.4028,0.4108,0.4274,0.4325,0.4418,0.4459,0.4457,0.461,0.4568,0.4523,0.4415,0.456,0.4586,0.461,0.4302,0.4299,0.4297,0.4295,0,0,0.362,0.371,0.3727,0.3773,0.3863,0.3902,0.4,0.4101,0.4191,0.4298,0.4434,0.4592,0.4629,0.4672,0.4671,0.4732,0.4891,0.4687,0.4688,0.4705,0.503,0.4753,0.475,0.4864,0.4869,0.4873,0.4989,0,0.3676,0.3764,0.3814,0.392,0.3974,0.4022,0.4106,0.4212,0.433,0.446,0.4569,0.4731,0.4704,0.4771,0.4833,0.4902,0.4959,0.4863,0.4906,0.4908,0.4627,0.4771,0.4419,0.4471,0.501,0.5014,0.5017,0,0.375,0.3792,0.3884,0.3997,0.4027,0.4093,0.4221,0.4323,0.4504,0.4626,0.4777,0.4857,0.5005,0.4958,0.5114,0.5048,0.5069,0.5095,0.5098,0.4817,0.4674,0.4419,0.4491,0.5055,0.5052,0.5049,0.5046,0,0.3746,0.3864,0.3923,0.3965,0.4074,0.4135,0.4211,0.4382,0.4499,0.4753,0.4879,0.5035,0.5127,0.5207,0.5222,0.5207,0.5352,0.5322,0.5088,0.5067,0.4767,0.4709,0.5444,0.5444,0.5444,0.5444,0.5443,0,0.3791,0.3849,0.3923,0.396,0.4037,0.4158,0.4293,0.4412,0.4625,0.4782,0.497,0.5064,0.5201,0.5255,0.5283,0.5223,0.539,0.5144,0.5093,0.4794,0.474,0.5238,0.5213,0.5448,0.5447,0.5446,0.5445,0,0.3775,0.3827,0.3907,0.4012,0.404,0.4116,0.4289,0.4415,0.4641,0.4843,0.4934,0.5126,0.5188,0.5237,0.534,0.5258,0.5265,0.5187,0.4797,0.4696,0.4936,0.4916,0.5015,0.5007,0.5,0.4994,0.4989,0,0.3753,0.3789,0.3898,0.3937,0.3986,0.4093,0.4178,0.44,0.454,0.4828,0.4913,0.5035,0.5032,0.5047,0.4958,0.4924,0.5057,0.455,0.4459,0.4959,0.4902,0.4893,0.4883,0.4134,0.4123,0.4113,0.4106,0,0.3705,0.376,0.3797,0.3871,0.3963,0.4028,0.417,0.4238,0.4504,0.4617,0.469,0.4706,0.4739,0.4474,0.4421,0.4364,0.4532,0.4347,0.502,0.4249,0.4124,0.4067,0.4089,0.4021,0.4029,0.4036,0.404,0.4044,0.3658,0.3688,0.3753,0.3769,0.3866,0.3908,0.3885,0.4014,0.4065,0.4159,0.4307,0.4211,0.423,0.3917,0.3768,0.3667,0.3991,0.3845,0.3878,0.3921,0.375,0.3613,0.3385,0.3389,0.3393,0.3397,0.34,0,0.3609,0.3635,0.3654,0.3675,0.3649,0.3773,0.3824,0.3731,0.3637,0.377,0.3733,0.3377,0.3205,0.3232,0.2958,0.293,0.297,0.2799,0.2848,0.2933,0.3009,0.2794,0.2174,0.217,0.2166,0.2163,0,0,0.3615,0.3578,0.3534,0.3384,0.3416,0.3352,0.3317,0.3187,0.3169,0.2983,0.2904,0.3113,0.3175,0.2656,0.257,0.2326,0.2624,0.2233,0.3225,0.3373,0.3444,0.3622,0.3386,0,0,0,0,0]},{"header":{"parameterUnit":"m.s-1","parameterCategory":2,"la1":30.2991,"la2":30.254,"lo1":-89.0895,"lo2":-89.0444,"dy":0.0017,"dx":0.0017,"nx":28,"ny":28,"refTime":"2024-07-04T21:00:00:Z","depth":"2","parameterNumber":3,"parameterNumberName":"V-component_of_CURRENTS"},"data":[0,0,0,0,0,0,0,0,0,0,0,0,0,0,0,0,0,0,0,0,0,0,0,0,0,0,0,0,0,0,0,0,0,0,0,0,0,0,0,0,0,0,0,0,0,0,0,0,0,0,0,0,0,0,0,0,0,0,0.0071,0.0071,0,0.0068,0.0068,0.0068,0.0052,0.0052,0.0051,0.0051,0.0032,0.0032,0.0032,0,0,0,0,0,0,0,0,0,0,0,0,0,0.004,0.004,0.0071,0.0071,0.0071,0.0068,0.0068,0.0068,0.0052,0.0052,0.0051,0.0051,0.0032,0.0032,0.0032,0,0,0,0,0,0,0,0,0,0,0,0,0,0.0046,0.0041,0.0071,0.0063,0.0062,0.0068,0.0068,0.0068,0.0052,0.0052,0.0051,0.0051,0.0032,0.0032,0.0032,0.004,0,0,0.0031,0.0031,0,0,0,0,0,0,0,0,0.0046,0.0047,0.0064,0.0064,0.0063,0.0061,0.005,0.0058,0.0052,0.0055,0.0051,0.005,0.0041,0.004,0.004,0.0039,0.0038,0.0031,0.003,0.003,0.003,0,0,0,0,0,0,0,0.0045,0.0047,0.0069,0.0064,0.0064,0.0052,0.0053,0.0051,0.005,0.0055,0.0054,0.0055,0.004,0.004,0.0039,0.0038,0.0031,0.003,0.003,0.003,0.0073,0.0074,0,0,0,0,0,0,0.0049,0.0047,0.0069,0.0069,0.0054,0.0053,0.0054,0.0061,0.005,0.0049,0.0055,0.0054,0.0041,0.0039,0.0038,0.0094,0.003,0.003,0.003,0.0072,0.0073,0.0075,0,0,0,0,0,0,0.0048,0.0051,0.0069,0.0058,0.0059,0.0054,0.0063,0.0061,0.0068,0.0051,0.0049,0.0064,0.004,0.0039,0.0048,0.0091,0.003,0.003,0.007,0.0072,0.0074,0.0176,0,0,0,0,0,0,0.0048,0.0051,0.0059,0.0059,0.006,0.0088,0.0063,0.0062,0.0069,0.0068,0.0058,0.0055,0.004,0.0048,0.0048,0.009,0.0029,0.0069,0.0071,0.0074,0.0171,0.0181,0.019,0,0,0,0,0,0.0047,0.0066,0.006,0.0063,0.0072,0.0089,0.009,0.0083,0.007,0.0085,0.0073,0.0056,0.0064,0.0049,0.0048,0.0091,0.0067,0.007,0.0073,0.0166,0.0179,0.019,0,0,0,0,0,0,0.0054,0.0066,0.006,0.008,0.0089,0.0087,0.01,0.0091,0.0093,0.0095,0.0069,0.0066,0.0096,0.0073,0.0058,0.0109,0.0065,0.0067,0.0136,0.0147,0.0157,0.0201,0.0029,0,0,0,0,0,0.006,0.0081,0.0084,0.0102,0.0109,0.0105,0.011,0.0111,0.0111,0.0112,0.01,0.0094,0.0107,0.0109,0.0112,0.0134,0.0102,0.0161,0.0171,0.0179,0.0214,0.0188,0.0199,0.0085,0.0085,0.0085,0,0,0.0067,0.0077,0.0087,0.0105,0.011,0.0142,0.0108,0.0131,0.0166,0.011,0.0145,0.0129,0.012,0.0153,0.0164,0.0139,0.0189,0.0183,0.019,0.0221,0.0192,0.0204,0.0213,0.0087,0.0086,0.0086,0,0,0.0105,0.0102,0.0138,0.0157,0.0178,0.0175,0.0185,0.0192,0.0204,0.0236,0.0208,0.0216,0.0225,0.0229,0.0233,0.0294,0.0243,0.0291,0.0376,0.035,0.036,0.0368,0.0318,0.0321,0.0293,0.0293,0.0293,0,0.0112,0.0164,0.015,0.0199,0.0227,0.0195,0.025,0.0258,0.0267,0.0299,0.0265,0.0297,0.0273,0.0328,0.0348,0.0321,0.0286,0.0334,0.0364,0.0371,0.0377,0.0325,0.0327,0.0298,0.0297,0.0297,0.0296,0,0.0185,0.0232,0.0258,0.0307,0.0327,0.0372,0.0382,0.0395,0.0396,0.0423,0.0477,0.0438,0.0463,0.0449,0.0422,0.0467,0.0418,0.0379,0.0337,0.0395,0.0335,0.0336,0.0306,0.0304,0.0302,0.0301,0,0,0.0207,0.0292,0.0307,0.0365,0.0399,0.0432,0.0474,0.0532,0.0596,0.059,0.0672,0.0669,0.0654,0.0656,0.0606,0.0579,0.0572,0.0508,0.0504,0.0465,0.0499,0.0422,0.0414,0.0534,0.0535,0.0536,0.043,0,0.0279,0.0392,0.0411,0.0525,0.059,0.0584,0.0633,0.0679,0.0715,0.0779,0.076,0.0824,0.0733,0.0751,0.071,0.0623,0.0582,0.0604,0.0446,0.0442,0.0371,0.0416,0.0441,0.0347,0.043,0.043,0.043,0,0.0364,0.0433,0.055,0.0664,0.0691,0.0744,0.0833,0.0887,0.0956,0.0995,0.1036,0.1019,0.1009,0.091,0.0785,0.0802,0.0672,0.0578,0.057,0.0474,0.0367,0.0306,0.0343,0.0429,0.0429,0.0429,0.0429,0,0.0417,0.0545,0.0642,0.0682,0.078,0.0837,0.089,0.0968,0.1063,0.1153,0.1235,0.1195,0.1202,0.1046,0.0837,0.0824,0.0667,0.0617,0.042,0.0411,0.0394,0.0382,0.0527,0.0527,0.0527,0.0527,0.0528,0,0.0507,0.06,0.0684,0.0751,0.088,0.0926,0.1073,0.1129,0.125,0.1406,0.1367,0.1439,0.124,0.1119,0.09,0.0658,0.0707,0.0458,0.0394,0.0425,0.0417,0.0462,0.0456,0.0523,0.0524,0.0525,0.0526,0,0.0574,0.0621,0.0758,0.0874,0.0918,0.1024,0.1198,0.1325,0.1418,0.161,0.1655,0.1641,0.1482,0.1228,0.0963,0.0758,0.0516,0.0404,0.0439,0.0381,0.0262,0.0262,0.0215,0.0212,0.0209,0.0207,0.0205,0,0.0619,0.069,0.0841,0.0936,0.1007,0.1155,0.1271,0.14,0.1557,0.1729,0.184,0.1753,0.1691,0.1257,0.0885,0.0494,0.0444,0.0257,0.0243,0.0296,0.0237,0.0242,0.0246,0.0245,0.0244,0.0243,0.0242,0,0.0709,0.0753,0.0857,0.1051,0.1199,0.1355,0.1544,0.1672,0.1844,0.1966,0.2072,0.2026,0.1675,0.1283,0.0768,0.0506,0.0325,0.022,0.0286,0.0316,0.0314,0.026,0.0265,0.0231,0.0232,0.0233,0.0234,0.0234,0.0771,0.0857,0.0994,0.1181,0.135,0.1548,0.1675,0.1864,0.2045,0.2228,0.2183,0.2104,0.175,0.1064,0.0641,0.0212,0.025,0.0092,0.01,0.0109,0.0127,0.0121,0.0003,0.0003,0.0002,0.0002,0.0002,0,0.0854,0.0954,0.1127,0.1339,0.1517,0.1604,0.1853,0.1963,0.214,0.2262,0.2289,0.1891,0.1493,0.1062,0.0442,0.0079,0.0075,-0.0066,0.0028,0.0041,0.0052,0.0071,-0.0071,-0.0072,-0.0073,-0.0075,0,0,0.0911,0.1064,0.1148,0.1428,0.1582,0.1807,0.1933,0.2081,0.2192,0.2226,0.2172,0.2106,0.1613,0.1141,0.0653,0.0292,0.0245,0.0207,0.0306,0.0489,0.0504,0.0182,0.023,0,0,0,0,0]}],[{"header":{"parameterUnit":"m.s-1","parameterCategory":2,"la1":30.2991,"la2":30.254,"lo1":-89.0895,"lo2":-89.0444,"dy":0.0017,"dx":0.0017,"nx":28,"ny":28,"refTime":"2024-07-04T21:00:00:Z","depth":"4","parameterNumber":2,"parameterNumberName":"U-component_of_CURRENTS"},"data":[0,0,0,0,0,0,0,0,0,0,0,0,0,0,0,0,0,0,0,0,0,0,0,0,0,0,0,0,0,0,0,0,0,0,0,0,0,0,0,0,0,0,0,0,0,0,0,0,0,0,0,0,0,0,0,0,0,0,0.1936,0.1936,0,0.1942,0.1941,0.1941,0.1958,0.1958,0.1959,0.196,0.209,0.2092,0.2095,0,0,0,0,0,0,0,0,0,0,0,0,0,0.1926,0.1926,0.1936,0.1936,0.1937,0.1942,0.1941,0.1941,0.1958,0.1958,0.1959,0.196,0.2089,0.2092,0.2095,0,0,0,0,0,0,0,0,0,0,0,0,0,0.1927,0.1926,0.1936,0.1948,0.195,0.1942,0.1941,0.1941,0.1957,0.1958,0.196,0.196,0.2087,0.2092,0.2096,0.2101,0,0,0.2109,0.211,0,0,0,0,0,0,0,0,0.1927,0.1927,0.1946,0.1947,0.1949,0.1953,0.1986,0.2002,0.1957,0.1951,0.196,0.1961,0.2057,0.2064,0.2056,0.2107,0.2113,0.2109,0.2112,0.2113,0.2115,0,0,0,0,0,0,0,0.1927,0.1927,0.1935,0.1947,0.1948,0.1949,0.195,0.1988,0.1998,0.1951,0.1953,0.1959,0.2058,0.2051,0.2059,0.2115,0.2109,0.2113,0.2115,0.2117,0.2286,0.2288,0,0,0,0,0,0,0.1933,0.1927,0.1935,0.1935,0.1945,0.1949,0.195,0.1948,0.1995,0.2003,0.1959,0.196,0.2044,0.2054,0.2064,0.2177,0.2113,0.2117,0.212,0.2284,0.2286,0.2288,0,0,0,0,0,0,0.1933,0.1933,0.1934,0.1935,0.1935,0.1948,0.1946,0.1948,0.1986,0.1999,0.2009,0.2001,0.2045,0.2058,0.2141,0.2179,0.2119,0.2123,0.2282,0.2285,0.2287,0.2337,0,0,0,0,0,0,0.1932,0.1933,0.1953,0.1935,0.1936,0.1948,0.1945,0.1947,0.1987,0.1991,0.2039,0.2049,0.2047,0.2135,0.2146,0.2184,0.2126,0.2279,0.2283,0.2286,0.2333,0.2342,0.2349,0,0,0,0,0,0.1932,0.1935,0.1954,0.1956,0.1956,0.1949,0.195,0.196,0.1989,0.2001,0.2052,0.205,0.2165,0.2141,0.2152,0.2192,0.2277,0.2282,0.2286,0.233,0.234,0.2349,0,0,0,0,0,0,0.1933,0.1937,0.1957,0.1962,0.1972,0.1954,0.1971,0.199,0.2035,0.2059,0.2082,0.2095,0.2186,0.2184,0.2157,0.2252,0.2219,0.2226,0.2248,0.2258,0.2265,0.2333,0.213,0,0,0,0,0,0.1947,0.1959,0.1961,0.1972,0.1981,0.1993,0.2004,0.2013,0.204,0.2061,0.2097,0.2145,0.2203,0.2229,0.2271,0.2323,0.235,0.2355,0.2363,0.2369,0.2433,0.2499,0.2519,0.2303,0.2303,0.2303,0,0,0.1951,0.1958,0.1967,0.1977,0.1988,0.1999,0.2002,0.2023,0.2054,0.2072,0.2143,0.2189,0.223,0.229,0.2328,0.2298,0.2435,0.2375,0.238,0.2442,0.2506,0.2527,0.2546,0.2306,0.2305,0.2305,0,0,0.1953,0.1976,0.1988,0.2002,0.203,0.2029,0.2051,0.2065,0.2098,0.216,0.2198,0.2289,0.2331,0.2384,0.2414,0.2499,0.2488,0.2486,0.2568,0.2629,0.2648,0.2666,0.268,0.2698,0.2472,0.2472,0.2472,0,0.197,0.198,0.1991,0.2009,0.2033,0.2053,0.2076,0.21,0.2146,0.2207,0.2193,0.2354,0.2388,0.2508,0.2538,0.2523,0.2534,0.2522,0.2641,0.2659,0.2676,0.2687,0.2706,0.2475,0.2474,0.2474,0.2474,0,0.1967,0.2,0.2008,0.2042,0.2065,0.2086,0.2121,0.2169,0.2217,0.2262,0.2405,0.2458,0.2565,0.257,0.2587,0.2726,0.2685,0.2653,0.2616,0.2701,0.2706,0.2725,0.2479,0.2478,0.2477,0.2476,0,0,0.1937,0.1999,0.2011,0.2043,0.2093,0.2102,0.2176,0.2253,0.2334,0.2402,0.2523,0.2644,0.271,0.2755,0.2782,0.2842,0.2952,0.2806,0.2808,0.2821,0.3058,0.2831,0.283,0.2927,0.2932,0.2936,0.2995,0,0.1942,0.1985,0.2023,0.2076,0.2092,0.2161,0.2216,0.2302,0.2392,0.2504,0.2622,0.2752,0.2761,0.2834,0.2903,0.2969,0.3015,0.2939,0.2978,0.298,0.2769,0.285,0.2951,0.3009,0.3014,0.3017,0.3019,0,0.1902,0.1953,0.2013,0.2094,0.2114,0.2171,0.2299,0.2353,0.2524,0.2605,0.2774,0.2868,0.3049,0.3004,0.3172,0.3116,0.3121,0.3133,0.3133,0.2939,0.2793,0.2921,0.3055,0.3052,0.3049,0.3047,0.3045,0,0.182,0.1922,0.1981,0.2012,0.2116,0.2201,0.2268,0.2418,0.2487,0.2719,0.2815,0.3012,0.3136,0.3204,0.3268,0.3236,0.3386,0.3323,0.3116,0.3097,0.326,0.3242,0.3429,0.3429,0.3429,0.3429,0.3429,0,0.1747,0.1798,0.1974,0.2002,0.2096,0.2187,0.231,0.2409,0.2574,0.2674,0.2888,0.2998,0.3201,0.3302,0.3313,0.3278,0.3423,0.3177,0.3121,0.3269,0.3252,0.327,0.3251,0.3431,0.343,0.343,0.343,0,0.1607,0.172,0.1792,0.1974,0.205,0.2114,0.2302,0.2375,0.256,0.2705,0.2795,0.3042,0.3192,0.3309,0.3429,0.332,0.3312,0.3246,0.3401,0.3344,0.2966,0.295,0.304,0.3033,0.3027,0.3022,0.3018,0,0.1555,0.1575,0.176,0.1838,0.1946,0.2087,0.2168,0.2346,0.2433,0.2691,0.2742,0.2986,0.3126,0.3134,0.3246,0.3249,0.3199,0.3154,0.3087,0.3003,0.2939,0.2931,0.2922,0.3008,0.3007,0.3005,0.3004,0,0.1447,0.1509,0.1566,0.1737,0.1866,0.1943,0.2102,0.2149,0.2345,0.2538,0.2674,0.2771,0.2918,0.3022,0.305,0.3031,0.3172,0.3092,0.3103,0.3039,0.2965,0.2906,0.2905,0.2983,0.2986,0.2988,0.2989,0,0.1391,0.1363,0.1467,0.1616,0.1753,0.1802,0.1882,0.202,0.2114,0.2418,0.245,0.2691,0.2906,0.2904,0.2913,0.2906,0.2858,0.2743,0.2772,0.2796,0.2684,0.2552,0.2431,0,0,0,0,0,0.1329,0.128,0.1367,0.1479,0.1616,0.1702,0.1844,0.1929,0.2148,0.2187,0.2317,0.2445,0.2532,0.2645,0.2589,0.2754,0.2833,0.2667,0.2708,0.2869,0.2893,0.278,0,0,0,0,0,0,0.1262,0.1288,0.1293,0.1388,0.1461,0.1553,0.1631,0.1756,0.1805,0.205,0.2135,0.2294,0.2433,0.2572,0.2557,0.2576,0.2543,0.2798,0.279,0.2856,0.2877,0.2896,0.2789,0,0,0,0,0]},{"header":{"parameterUnit":"m.s-1","parameterCategory":2,"la1":30.2991,"la2":30.254,"lo1":-89.0895,"lo2":-89.0444,"dy":0.0017,"dx":0.0017,"nx":28,"ny":28,"refTime":"2024-07-04T21:00:00:Z","depth":"4","parameterNumber":3,"parameterNumberName":"V-component_of_CURRENTS"},"data":[0,0,0,0,0,0,0,0,0,0,0,0,0,0,0,0,0,0,0,0,0,0,0,0,0,0,0,0,0,0,0,0,0,0,0,0,0,0,0,0,0,0,0,0,0,0,0,0,0,0,0,0,0,0,0,0,0,0,0.0037,0.0037,0,0.0045,0.0046,0.0046,0.0032,0.0031,0.0031,0.0031,0.001,0.0009,0.0009,0,0,0,0,0,0,0,0,0,0,0,0,0,-0.0004,-0.0003,0.0037,0.0037,0.0037,0.0045,0.0046,0.0046,0.0032,0.0031,0.0031,0.003,0.001,0.001,0.0009,0,0,0,0,0,0,0,0,0,0,0,0,0,0.001,-0.0003,0.0037,0.0031,0.0031,0.0045,0.0046,0.0046,0.0032,0.0031,0.0031,0.003,0.001,0.001,0.0009,0.0022,0,0,0.0009,0.0009,0,0,0,0,0,0,0,0,0.0009,0.0011,0.0032,0.0032,0.0031,0.0037,0.0023,0.0036,0.0032,0.0031,0.0031,0.003,0.0017,0.0016,0.0019,0.0021,0.002,0.0009,0.0009,0.0008,0.0008,0,0,0,0,0,0,0,0.0008,0.0011,0.004,0.0032,0.0032,0.0024,0.0026,0.0026,0.0027,0.0031,0.0031,0.0032,0.0016,0.0019,0.0019,0.002,0.0009,0.0009,0.0008,0.0008,-0.0007,-0.0008,0,0,0,0,0,0,0.0009,0.001,0.004,0.004,0.0018,0.0026,0.0027,0.0036,0.0028,0.0026,0.0033,0.0031,0.002,0.0019,0.0018,0.003,0.0008,0.0008,0.0008,-0.0007,-0.0007,-0.0008,0,0,0,0,0,0,0.0008,0.0012,0.0039,0.0025,0.0028,0.0027,0.0037,0.0036,0.0041,0.0029,0.0027,0.0038,0.002,0.0018,0.0015,0.0029,0.0008,0.0008,-0.0007,-0.0007,-0.0007,0.0055,0,0,0,0,0,0,0.0007,0.0012,0.0019,0.0025,0.0029,0.0055,0.0038,0.0037,0.0043,0.0041,0.0033,0.003,0.0019,0.0015,0.0014,0.0028,0.0008,-0.0006,-0.0007,-0.0007,0.0053,0.0056,0.0059,0,0,0,0,0,0.0006,0.0023,0.0019,0.0023,0.0038,0.0056,0.0057,0.0054,0.0044,0.0054,0.0039,0.003,0.001,0.0015,0.0014,0.0028,-0.0006,-0.0007,-0.0007,0.0052,0.0056,0.0059,0,0,0,0,0,0,0.0008,0.0023,0.0019,0.0039,0.0048,0.0054,0.0062,0.0059,0.0056,0.0054,0.0035,0.0032,0.0029,0.0017,0.0022,0.0017,-0.0002,-0.0003,0.0043,0.0046,0.005,0.0061,0.0008,0,0,0,0,0,0.0012,0.003,0.0038,0.0054,0.006,0.0061,0.0067,0.0068,0.0067,0.0066,0.0055,0.0039,0.0026,0.0027,0.0013,0.0023,-0.001,0.0025,0.0028,0.0031,0.0037,-0.0003,-0.0002,-0.001,-0.001,-0.001,0,0,0.0016,0.0028,0.0036,0.0056,0.0061,0.0082,0.0063,0.0081,0.0091,0.0064,0.007,0.005,0.0028,0.003,0.0028,0.0025,0.0013,0.003,0.0034,0.0038,-0.0004,-0.0003,-0.0002,-0.001,-0.001,-0.001,0,0,0.0041,0.0044,0.0069,0.0082,0.0099,0.0101,0.0107,0.0115,0.011,0.0117,0.009,0.0077,0.0069,0.0054,0.0045,0.0056,0.0026,0.0052,0.0091,0.0052,0.0053,0.0053,0.0007,0.0002,0.0062,0.0062,0.0062,0,0.0043,0.0083,0.0078,0.0108,0.0126,0.0111,0.0144,0.0138,0.0141,0.0147,0.0123,0.0101,0.0077,0.008,0.0079,0.0065,0.0037,0.0085,0.0058,0.0058,0.0057,0.0009,0.0004,0.0065,0.0064,0.0064,0.0064,0,0.009,0.0123,0.014,0.0172,0.0184,0.0214,0.0207,0.0207,0.0195,0.0198,0.0191,0.0151,0.0145,0.0127,0.0109,0.01,0.0078,0.0063,0.0055,0.0062,0.001,0.0003,0.0069,0.0068,0.0067,0.0066,0,0,0.0104,0.0162,0.0171,0.0206,0.0227,0.0248,0.0251,0.027,0.0284,0.0263,0.0279,0.0239,0.0226,0.0211,0.018,0.0143,0.0103,0.011,0.0107,0.0075,0.0014,0.0022,0.0015,0.0089,0.0088,0.0088,-0.0021,0,0.0149,0.0223,0.0235,0.0302,0.0344,0.0332,0.0342,0.035,0.0339,0.0345,0.0302,0.0306,0.0256,0.0257,0.0211,0.0132,0.0089,0.0133,0.0002,-0.0002,0.0014,0.0009,0.0086,-0.0027,-0.0028,-0.003,-0.0031,0,0.0198,0.0249,0.0324,0.0388,0.0402,0.0434,0.0456,0.0466,0.0458,0.0449,0.0438,0.0407,0.0362,0.031,0.0179,0.0214,0.0123,0.0048,0.0041,0.0025,-0.0006,-0.0037,-0.0044,-0.0043,-0.0042,-0.0041,-0.004,0,0.0233,0.0313,0.0379,0.0403,0.046,0.0489,0.0513,0.0515,0.0538,0.0529,0.0545,0.048,0.046,0.0333,0.0186,0.0185,0.0025,0.0004,-0.008,-0.0082,-0.0083,-0.0082,-0.0095,-0.0095,-0.0095,-0.0095,-0.0094,0,0.0289,0.0348,0.041,0.0457,0.0534,0.055,0.0621,0.0618,0.0639,0.0686,0.0621,0.0622,0.0467,0.0363,0.0208,0.0047,0.0042,-0.0075,-0.0105,-0.0057,-0.0052,-0.0089,-0.0086,-0.0099,-0.0098,-0.0097,-0.0096,0,0.0328,0.0366,0.0455,0.0533,0.0562,0.062,0.0709,0.0752,0.0757,0.0807,0.0815,0.0739,0.0608,0.0431,0.022,0.0098,-0.0076,-0.0135,-0.0072,-0.0098,-0.0167,-0.0161,-0.0237,-0.0237,-0.0238,-0.0238,-0.0238,0,0.035,0.04,0.0508,0.0569,0.062,0.0711,0.077,0.0808,0.0855,0.0874,0.0897,0.0809,0.0734,0.0456,0.0243,-0.0044,-0.0085,-0.0183,-0.0176,-0.0158,-0.018,-0.0173,-0.0166,-0.0239,-0.0239,-0.0239,-0.0239,0,0.0395,0.0432,0.0509,0.0635,0.0724,0.081,0.0902,0.0948,0.0987,0.1,0.0993,0.0863,0.0718,0.0485,0.027,0.0054,-0.0125,-0.0189,-0.0189,-0.0183,-0.0162,-0.0182,-0.0175,-0.0241,-0.0241,-0.0241,-0.024,0,0.042,0.0471,0.0571,0.069,0.0796,0.0882,0.093,0.0999,0.1044,0.107,0.1061,0.0909,0.0825,0.0533,0.032,0.0127,0.0073,-0.0003,-0.0014,-0.0015,0.0078,0.014,0.0131,0,0,0,0,0,0.0436,0.0502,0.0614,0.0735,0.0848,0.0908,0.1,0.1035,0.1082,0.11,0.1092,0.0961,0.0694,0.0564,0.0377,0.0272,0.0004,0.004,-0.0096,-0.025,-0.0248,-0.0175,0,0,0,0,0,0,0.0447,0.0546,0.0612,0.0758,0.0846,0.0953,0.1016,0.1046,0.1056,0.1084,0.095,0.0905,0.0637,0.0815,0.0375,0.0313,0.0196,-0.0081,-0.0086,-0.0251,-0.0249,-0.0248,-0.0172,0,0,0,0,0]}]]